Regional Weather Roundup
Issued by NWS

Home | Current Version | Previous Version | Graphics & Text | Print | Product List | Glossary On
Versions: 1 2 3 4 5 6 7 8 9 10 11 12 13 14 15 16 17 18 19 20 21 22 23 24 25 26 27 28 29 30 31 32 33 34 35 36 37 38 39 40 41 42 43 44 45 46 47 48 49 50
000
ASUS43 KTOP 182359
RWRKS

WEATHER ROUNDUP FOR KANSAS
NATIONAL WEATHER SERVICE GOODLAND KS
700 PM CDT SAT APR 18 2015

NOTE:  "FAIR" INDICATES FEW OR NO CLOUDS BELOW 12,000 FEET WITH NO
SIGNIFICANT WEATHER AND/OR OBSTRUCTIONS TO VISIBILITY.

KSZ001>006-013>018-027>032-041>047-190100-
NORTHWEST KANSAS

CITY           SKY/WX    TMP DP  RH WIND       PRES   REMARKS
GOODLAND       MOSUNNY   56  44  64 NW18      29.77R
6HR MIN TEMP:  46; 6HR MAX TEMP:  62; 6HR PCP:  0.18;

HAYS           CLOUDY    57  45  62 E15       29.76S
HILL CITY      LGT RAIN  60  47  61 SE20G26   29.74R
6HR MIN TEMP:  60; 6HR MAX TEMP:  72; 6HR PCP: TRACE;

RUSSELL        LGT RAIN  56  48  74 SE32G41   29.72F
6HR MIN TEMP:  55; 6HR MAX TEMP:  73; 6HR PCP:  0.06;

$$

KSZ061>065-074>080-084>089-190100-
SOUTHWEST KANSAS

CITY           SKY/WX    TMP DP  RH WIND       PRES   REMARKS
DODGE CITY     CLOUDY    68  39  34 W18G25    29.74R
6HR MIN TEMP:  66; 6HR MAX TEMP:  72; 6HR PCP: TRACE;

ELKHART          N/A    N/A N/A N/A MISG        N/A
GARDEN CITY    PTSUNNY   57  36  45 W20G31    29.79R
6HR MIN TEMP:  57; 6HR MAX TEMP:  68;

GREAT BEND     CLOUDY    55  46  71 SE16      29.77R
LIBERAL        PTSUNNY   63  37  39 SW8       29.78F
$$

KSZ066>073-081>083-090>101-190100-
SOUTHEAST KANSAS

CITY           SKY/WX    TMP DP  RH WIND       PRES   REMARKS
CHANUTE        MOSUNNY   67  60  78 SE10      29.82S
6HR MIN TEMP:  62; 6HR MAX TEMP:  70; 6HR PCP: TRACE;

COFFEYVILLE    MOSUNNY   70  60  70 E9        29.80S
6HR MIN TEMP:  65; 6HR MAX TEMP:  72;

HUTCHINSON     LGT RAIN  53  49  86 NW13G24   29.84R
6HR MIN TEMP:  53; 6HR MAX TEMP:  76; 6HR PCP:  0.21;

MEDICINE LODGE   N/A     56  54  93 N6        29.75S
NEWTON         PTSUNNY   61  46  59 NW33G41   29.82R
PARSONS        MOSUNNY   70  61  73 E6        29.82S
6HR MIN TEMP:  63; 6HR MAX TEMP:  71; 6HR PCP: TRACE;

WICHITA INTL   PTSUNNY   70  56  61 SE10      29.76R
6HR MIN TEMP:  67; 6HR MAX TEMP:  75;

WICHITA JABRA  MOSUNNY   68  55  63 SE9       29.77S
6HR MIN TEMP:  66; 6HR MAX TEMP:  75; 6HR PCP: TRACE;

WINFIELD       MOSUNNY   71  57  61 SE9       29.78R
6HR MIN TEMP:  69; 6HR MAX TEMP:  76;

$$

KSZ007>012-019>026-033>040-048>060-102>105-190100-
NORTHEAST KANSAS

CITY           SKY/WX    TMP DP  RH WIND       PRES   REMARKS
CONCORDIA      LGT RAIN  58  52  80 SE6       29.84R
6HR MIN TEMP:  57; 6HR MAX TEMP:  75; 6HR PCP:  0.02;

EMPORIA        SUNNY     66  57  72 SE12      29.80F
6HR MIN TEMP:  61; 6HR MAX TEMP:  68; 6HR PCP:  0.05;

LAWRENCE       CLOUDY    63  58  83 E8        29.83S
6HR MIN TEMP:  62; 6HR MAX TEMP:  66; 6HR PCP:  0.08;

MANHATTAN      PTSUNNY   69  56  62 S10       29.79S
6HR MIN TEMP:  66; 6HR MAX TEMP:  73;

OLATHE IND     PTSUNNY   63  58  83 SE9       29.85R
6HR MIN TEMP:  60; 6HR MAX TEMP:  66; 6HR PCP:  0.10;

OLATHE EXE     PTSUNNY   63  58  83 SE10      29.84R
6HR MIN TEMP:  60; 6HR MAX TEMP:  64; 6HR PCP:  0.10;

SALINA         RAIN      57  52  83 SW10G23   29.87R
6HR MIN TEMP:  57; 6HR MAX TEMP:  77; 6HR PCP:  0.10;

TOPEKA BILLARD MOSUNNY   66  57  72 SE8       29.83R
6HR MIN TEMP:  63; 6HR MAX TEMP:  68; 6HR PCP:  0.03;

TOPEKA FORBES  CLOUDY    66  58  75 E8        29.82R
6HR MIN TEMP:  63; 6HR MAX TEMP:  69; 6HR PCP:  0.02;

$$


USA.gov is the U.S. government's official web portal to all federal, state and local government web resources and services.